Plattsburgh, NY

2:53 AM EST on December 15, 2019 (GMT -0500)
Plattsburgh International

Weather History for KPBG - October, 2019

Change the Weather History Date:

Saturday, October 19, 2019

  Actual Average Record
Temperature  
Mean Temperature 42 °F 46 °F  
Max Temperature 52 °F 56 °F 83 °F (1950)
Min Temperature 32 °F 37 °F 21 °F (1972)
Degree Days  
Heating Degree Days 23 19  
Month to date heating degree days 287 296  
Since 1 July heating degree days 479 531  
Cooling Degree Days 0 0  
Month to date cooling degree days 0 0  
Year to date cooling degree days 406 345  
Moisture  
Dew Point 33 °F    
Average Humidity 72    
Maximum Humidity 96    
Minimum Humidity 48    
Precipitation  
Precipitation 0.00 in - 1.03 in (2012)
Month to date precipitation 3.07 0.00  
Year to date precipitation 24.69  
Sea Level Pressure  
Sea Level Pressure 30.05 in    
Wind  
Wind Speed 4 mph ()    
Max Wind Speed 14 mph    
Max Gust Speed 20 mph    
Visibility 10.0 miles    
Events      
T = Trace of Precipitation, MM = Missing Value Source: Averaged Metar Reports

Daily Weather History Graph

Daily Weather History Graph

Search for Another Location

Airport or City:

Astronomy

Oct. 19, 2019 Rise Set
Actual Time 7:14 AM EDT 6:02 PM EDT
Civil Twilight 6:44 AM EDT 6:32 PM EDT
Nautical Twilight 6:10 AM EDT 7:06 PM EDT
Astronomical Twilight 5:36 AM EDT 7:40 PM EDT
Moon 9:59 PM EDT (10/19) 12:54 PM EDT (10/19)
Length of Visible Light 11h 48m
Length of Day
10h 48m
Waning Gibbous, 70% of the Moon is Illuminated
Oct 19
Waning Gibbous
Oct 21
Last Quarter
Oct 27
New
Nov 4
First Quarter
Nov 12
Full

Hourly Weather History & Observations

Time (EDT) Temp. Windchill Dew Point Humidity Pressure Visibility Wind Dir Wind Speed Gust Speed Precip Events Conditions
12:53 AM 44.1 °F 40.8 °F 33.1 °F 65% 29.99 in 10.0 mi NW 5.8 mph - N/A   Overcast
1:53 AM 39.9 °F - 33.1 °F 77% 30.01 in 10.0 mi Calm Calm - N/A   Clear
2:53 AM 39.0 °F 36.8 °F 33.1 °F 79% 30.01 in 10.0 mi SW 3.5 mph - N/A   Mostly Cloudy
3:53 AM 37.9 °F - 33.1 °F 83% 30.02 in 10.0 mi Calm Calm - N/A   Overcast
4:53 AM 37.9 °F - 32.0 °F 79% 30.02 in 10.0 mi Calm Calm - N/A   Mostly Cloudy
5:53 AM 37.9 °F 35.5 °F 32.0 °F 79% 30.03 in 10.0 mi West 3.5 mph - N/A   Overcast
6:53 AM 37.0 °F 32.4 °F 32.0 °F 82% 30.05 in 10.0 mi NW 5.8 mph - N/A   Clear
7:53 AM 39.0 °F 34.0 °F 32.0 °F 76% 30.06 in 10.0 mi NNW 6.9 mph - N/A   Clear
8:53 AM 44.1 °F 40.8 °F 32.0 °F 63% 30.08 in 10.0 mi NW 5.8 mph - N/A   Clear
9:53 AM 46.9 °F - 32.0 °F 56% 30.08 in 10.0 mi WNW 8.1 mph - N/A   Partly Cloudy
10:53 AM 48.0 °F - 30.9 °F 52% 30.08 in 10.0 mi NW 12.7 mph 19.6 mph N/A   Clear
11:53 AM 48.0 °F - 30.9 °F 52% 30.07 in 10.0 mi NNW 6.9 mph - N/A   Clear
12:53 PM 50.0 °F - 32.0 °F 50% 30.06 in 10.0 mi Variable 3.5 mph - N/A   Scattered Clouds
1:53 PM 52.0 °F - 34.0 °F 50% 30.05 in 10.0 mi ENE 8.1 mph - N/A   Partly Cloudy
2:53 PM 52.0 °F - 33.1 °F 49% 30.04 in 10.0 mi ENE 9.2 mph - N/A   Clear
3:53 PM 51.1 °F - 35.1 °F 54% 30.04 in 10.0 mi ESE 8.1 mph - N/A   Clear
4:53 PM 50.0 °F - 35.1 °F 57% 30.04 in 10.0 mi East 3.5 mph - N/A   Clear
5:53 PM 46.0 °F - 37.0 °F 71% 30.04 in 10.0 mi Calm Calm - N/A   Clear
6:53 PM 42.1 °F 40.2 °F 37.9 °F 85% 30.05 in 10.0 mi West 3.5 mph - N/A   Clear
7:53 PM 39.0 °F - 36.0 °F 89% 30.05 in 10.0 mi Calm Calm - N/A   Clear
8:53 PM 37.0 °F - 35.1 °F 93% 30.06 in 10.0 mi Calm Calm - N/A   Clear
9:53 PM 36.0 °F - 34.0 °F 93% 30.06 in 10.0 mi Calm Calm - N/A   Clear
10:53 PM 35.1 °F - 33.1 °F 92% 30.06 in 10.0 mi Calm Calm - N/A   Clear
11:53 PM 33.1 °F - 32.0 °F 96% 30.06 in 10.0 mi Calm Calm - N/A   Clear